[[{"header":{"parameterUnit":"m.s-1","parameterCategory":1,"la1":30.2991,"la2":30.254,"lo1":-89.0895,"lo2":-89.0444,"dy":0.0017,"dx":0.0017,"nx":28,"ny":28,"refTime":"2025-09-17T03:00:00:Z","depth":0,"parameterNumber":2,"parameterNumberName":"U-component_of_WINDS"},"data":[0,0,0,0,0,0,0,0,0,0,0,0,0,0,0,0,0,0,0,0,0,0,0,0,0,0,0,0,0,0,0,0,0,0,0,0,0,0,0,0,0,0,0,0,0,0,0,0,0,0,0,0,0,0,0,0,0,0,1.9117,1.9117,0,1.9125,1.9125,1.9125,1.9097,1.9096,1.9095,1.9094,1.91,1.9101,1.9102,0,0,0,0,0,0,0,0,0,0,0,0,0,1.9074,1.9075,1.9117,1.9117,1.9117,1.9125,1.9125,1.9125,1.9097,1.9096,1.9095,1.9094,1.91,1.9101,1.9102,0,0,0,0,0,0,0,0,0,0,0,0,0,1.9089,1.9076,1.9117,1.9104,1.9103,1.9125,1.9125,1.9125,1.9097,1.9096,1.9094,1.9093,1.9099,1.9101,1.9102,1.9136,0,0,1.9106,1.9107,0,0,0,0,0,0,0,0,1.9088,1.909,1.9106,1.9105,1.9104,1.9108,1.9112,1.9128,1.9097,1.9099,1.9094,1.9093,1.9104,1.9105,1.9109,1.9136,1.9136,1.9106,1.9107,1.9108,1.9108,0,0,0,0,0,0,0,1.9087,1.909,1.912,1.9106,1.9105,1.9097,1.9097,1.9115,1.9108,1.9099,1.9097,1.9098,1.9103,1.9107,1.9109,1.9136,1.9106,1.9108,1.9108,1.9109,1.9187,1.9188,0,0,0,0,0,0,1.9088,1.9089,1.912,1.912,1.9093,1.9099,1.9099,1.9108,1.9108,1.9107,1.9099,1.9097,1.9106,1.9107,1.9109,1.9145,1.9108,1.9109,1.911,1.9186,1.9187,1.9189,0,0,0,0,0,0,1.9087,1.9091,1.912,1.9104,1.9107,1.9101,1.9111,1.9109,1.9114,1.9108,1.9107,1.9106,1.9105,1.9107,1.9128,1.9145,1.911,1.9111,1.9184,1.9186,1.9188,1.922,0,0,0,0,0,0,1.9086,1.9091,1.9105,1.9105,1.9108,1.914,1.9112,1.911,1.9116,1.9113,1.9114,1.9113,1.9104,1.9126,1.913,1.9146,1.9112,1.9183,1.9185,1.9187,1.9217,1.9223,1.9227,0,0,0,0,0,1.9085,1.9114,1.9106,1.911,1.9126,1.9142,1.9143,1.9133,1.9118,1.9131,1.9127,1.9113,1.9143,1.9129,1.9132,1.915,1.9182,1.9184,1.9187,1.9215,1.9222,1.9227,0,0,0,0,0,0,1.9117,1.9114,1.9105,1.9135,1.9139,1.9137,1.9153,1.9141,1.9149,1.9146,1.9132,1.9132,1.9155,1.9155,1.9139,1.918,1.9159,1.9163,1.9179,1.9186,1.919,1.9189,1.9113,0,0,0,0,0,1.9127,1.9142,1.9138,1.9165,1.9168,1.916,1.9167,1.9158,1.9161,1.9163,1.916,1.9163,1.9172,1.9179,1.9188,1.9217,1.9215,1.9231,1.9236,1.924,1.9242,1.9254,1.926,1.9198,1.9198,1.9198,0,0,1.915,1.915,1.916,1.9172,1.9174,1.9186,1.9162,1.9178,1.9186,1.9165,1.9184,1.9183,1.9184,1.9209,1.922,1.9209,1.9259,1.9243,1.9247,1.9247,1.9258,1.9263,1.9269,1.92,1.9199,1.9199,0,0,1.9196,1.9199,1.922,1.9222,1.9225,1.9219,1.9224,1.9223,1.9221,1.924,1.9223,1.9233,1.9251,1.9252,1.9255,1.9298,1.9284,1.9302,1.9327,1.9338,1.9343,1.9347,1.936,1.9365,1.9305,1.9305,1.9305,0,1.9223,1.9243,1.9233,1.9249,1.9253,1.9234,1.9253,1.9255,1.9261,1.9263,1.9252,1.9271,1.9272,1.9294,1.9304,1.9309,1.9312,1.9301,1.9344,1.9348,1.9351,1.9363,1.9368,1.9307,1.9306,1.9306,1.9306,0,1.9275,1.9289,1.9305,1.931,1.9316,1.9334,1.9324,1.9332,1.9322,1.9317,1.9335,1.9334,1.9341,1.9346,1.9338,1.9367,1.9359,1.9346,1.9325,1.9359,1.937,1.9375,1.9309,1.9309,1.9308,1.9308,0,0,1.9343,1.9339,1.9345,1.9345,1.9346,1.9356,1.9371,1.9378,1.9383,1.9387,1.9398,1.9412,1.9398,1.9402,1.9393,1.9403,1.9433,1.9388,1.9387,1.9394,1.9461,1.947,1.9476,1.9425,1.9425,1.9426,1.946,0,1.9386,1.9413,1.9402,1.943,1.944,1.9421,1.9434,1.9434,1.9429,1.9437,1.9431,1.944,1.9423,1.9424,1.9434,1.9428,1.9446,1.9425,1.9432,1.9433,1.9431,1.9482,1.9492,1.9524,1.9465,1.9466,1.9466,0,1.9441,1.9445,1.9473,1.9468,1.9472,1.9485,1.9488,1.9496,1.9495,1.949,1.9492,1.948,1.9493,1.9472,1.9488,1.9474,1.9476,1.9473,1.9474,1.9473,1.945,1.948,1.9535,1.9539,1.9473,1.9473,1.9472,0,1.9483,1.9497,1.9515,1.9516,1.9511,1.952,1.9518,1.9516,1.9519,1.9522,1.9523,1.9528,1.9529,1.9532,1.952,1.9507,1.9536,1.9516,1.9531,1.9531,1.9537,1.9536,1.9591,1.9542,1.9542,1.9542,1.9542,0,1.9532,1.9549,1.9533,1.9544,1.9562,1.9548,1.9566,1.9562,1.956,1.9568,1.9551,1.9559,1.9544,1.955,1.954,1.9553,1.9555,1.955,1.9547,1.955,1.955,1.955,1.9546,1.9543,1.9543,1.9542,1.9542,0,1.9582,1.9573,1.959,1.9584,1.9582,1.9595,1.9589,1.9597,1.9591,1.9601,1.9602,1.9591,1.9597,1.9585,1.959,1.9583,1.96,1.9595,1.9601,1.9598,1.9613,1.961,1.9667,1.9673,1.9622,1.9623,1.9623,0,1.9613,1.9625,1.9619,1.9624,1.9623,1.963,1.9633,1.9619,1.9623,1.962,1.9629,1.9633,1.9635,1.9644,1.9635,1.9638,1.9631,1.965,1.9631,1.9633,1.9628,1.9626,1.9626,1.9654,1.9654,1.9655,1.9655,0,1.9667,1.9661,1.9666,1.9668,1.9672,1.9673,1.9674,1.9678,1.9663,1.9667,1.9672,1.9674,1.9677,1.968,1.968,1.9676,1.9662,1.9662,1.9665,1.9667,1.9669,1.9665,1.9609,1.966,1.966,1.9659,1.9659,1.9659,1.9706,1.9715,1.9712,1.9717,1.9715,1.9715,1.9721,1.9715,1.9719,1.972,1.9712,1.9718,1.9713,1.9712,1.9709,1.9713,1.9704,1.9709,1.971,1.9711,1.9712,1.967,1.9713,1.9713,1.9713,1.9713,1.9712,0,1.9757,1.9753,1.9758,1.9758,1.9761,1.9748,1.9747,1.975,1.9756,1.9753,1.9755,1.9759,1.9761,1.9752,1.9753,1.9757,1.975,1.9757,1.9756,1.9755,1.9721,1.9717,1.9762,1.9762,1.9762,1.9762,1.9762,1.9762,1.9784,1.9797,1.979,1.9801,1.9797,1.9803,1.9802,1.9801,1.9798,1.9804,1.9805,1.98,1.9793,1.9793,1.9793,1.979,1.979,1.9799,1.9794,1.9762,1.9757,1.9753,1.9749,1.98,1.98,1.9826,1.9826,1.9827]},{"header":{"parameterUnit":"m.s-1","parameterCategory":1,"la1":30.2991,"la2":30.254,"lo1":-89.0895,"lo2":-89.0444,"dy":0.0017,"dx":0.0017,"nx":28,"ny":28,"refTime":"2025-09-17T03:00:00:Z","depth":0,"parameterNumber":3,"parameterNumberName":"V-component_of_WINDS"},"data":[0,0,0,0,0,0,0,0,0,0,0,0,0,0,0,0,0,0,0,0,0,0,0,0,0,0,0,0,0,0,0,0,0,0,0,0,0,0,0,0,0,0,0,0,0,0,0,0,0,0,0,0,0,0,0,0,0,0,0.6262,0.6262,0,0.625,0.625,0.625,0.6231,0.6231,0.6231,0.623,0.6218,0.6218,0.6217,0,0,0,0,0,0,0,0,0,0,0,0,0,0.6268,0.6268,0.6262,0.6262,0.6262,0.625,0.625,0.625,0.6231,0.6231,0.6231,0.623,0.6218,0.6218,0.6217,0,0,0,0,0,0,0,0,0,0,0,0,0,0.6262,0.6268,0.6262,0.6252,0.625,0.625,0.625,0.625,0.6232,0.6231,0.6231,0.623,0.6218,0.6218,0.6217,0.6227,0,0,0.6217,0.6217,0,0,0,0,0,0,0,0,0.6262,0.6262,0.6253,0.6252,0.6251,0.6242,0.6247,0.6242,0.6232,0.6239,0.623,0.623,0.6226,0.6225,0.6224,0.6226,0.6226,0.6217,0.6217,0.6217,0.6217,0,0,0,0,0,0,0,0.6263,0.6262,0.6257,0.6253,0.6252,0.6247,0.6245,0.6246,0.6235,0.6238,0.6237,0.6235,0.6225,0.6224,0.6223,0.6225,0.6217,0.6217,0.6217,0.6217,0.6232,0.6232,0,0,0,0,0,0,0.6265,0.6263,0.6258,0.6257,0.6256,0.6247,0.6245,0.6245,0.6235,0.6233,0.6236,0.6235,0.6224,0.6224,0.6223,0.6231,0.6217,0.6217,0.6217,0.6231,0.6232,0.6232,0,0,0,0,0,0,0.6265,0.6265,0.6258,0.6259,0.6258,0.6247,0.6247,0.6245,0.6244,0.6234,0.6231,0.6237,0.6224,0.6223,0.6225,0.6231,0.6217,0.6217,0.6231,0.6231,0.6232,0.625,0,0,0,0,0,0,0.6265,0.6265,0.6269,0.626,0.6258,0.6262,0.6248,0.6245,0.6244,0.6242,0.6234,0.6232,0.6224,0.6225,0.6225,0.6231,0.6217,0.623,0.6231,0.6232,0.6249,0.6251,0.6253,0,0,0,0,0,0.6266,0.6275,0.6269,0.6269,0.6263,0.6262,0.6261,0.6251,0.6245,0.6248,0.6241,0.6232,0.623,0.6226,0.6225,0.6231,0.623,0.6231,0.6232,0.6248,0.625,0.6253,0,0,0,0,0,0,0.6286,0.6274,0.6267,0.6274,0.6269,0.6259,0.6263,0.6255,0.6252,0.6251,0.6239,0.6237,0.624,0.6236,0.6231,0.6238,0.6229,0.6229,0.6241,0.6243,0.6245,0.6246,0.6217,0,0,0,0,0,0.6291,0.6291,0.6281,0.6287,0.6285,0.6275,0.6274,0.6266,0.6261,0.6259,0.6252,0.6247,0.6245,0.6244,0.6242,0.6248,0.6245,0.6251,0.6253,0.6255,0.6256,0.6256,0.6259,0.6235,0.6235,0.6235,0,0,0.6302,0.6295,0.6296,0.6291,0.6287,0.6286,0.6273,0.6274,0.6274,0.6259,0.626,0.6255,0.6248,0.6252,0.6253,0.6248,0.6261,0.6256,0.6257,0.6257,0.6258,0.626,0.6262,0.6236,0.6236,0.6236,0,0,0.6321,0.6317,0.6321,0.6316,0.6309,0.6301,0.6302,0.6293,0.6289,0.629,0.6278,0.6277,0.6274,0.6269,0.6266,0.6281,0.6272,0.6281,0.6292,0.6293,0.6295,0.6296,0.63,0.6302,0.6282,0.6282,0.6282,0,0.6335,0.6335,0.6324,0.6325,0.6323,0.6309,0.6312,0.6308,0.6301,0.6299,0.6293,0.6288,0.6282,0.6284,0.6287,0.6286,0.6285,0.6282,0.6295,0.6297,0.6298,0.6302,0.6303,0.6283,0.6282,0.6282,0.6282,0,0.6352,0.6352,0.6356,0.6349,0.6347,0.6349,0.6337,0.6336,0.6328,0.6321,0.6321,0.6314,0.6309,0.6308,0.6301,0.6308,0.6305,0.6298,0.6288,0.6301,0.6304,0.6306,0.6284,0.6284,0.6283,0.6283,0,0,0.6386,0.637,0.6372,0.6367,0.6357,0.6357,0.6357,0.6352,0.6351,0.6346,0.6345,0.6342,0.6334,0.6331,0.6323,0.6324,0.6334,0.6316,0.6315,0.6318,0.6339,0.6344,0.6346,0.6328,0.6328,0.6328,0.6339,0,0.6403,0.6404,0.6392,0.6396,0.6395,0.638,0.6381,0.6374,0.6366,0.6364,0.6355,0.6353,0.6344,0.6341,0.6341,0.6332,0.6337,0.6332,0.6326,0.6326,0.6328,0.6348,0.6354,0.6365,0.634,0.634,0.6341,0,0.6423,0.6418,0.6421,0.6409,0.6408,0.6409,0.6402,0.64,0.6391,0.6385,0.638,0.6371,0.6369,0.636,0.6357,0.6353,0.635,0.6345,0.6345,0.6344,0.6334,0.6347,0.6368,0.6369,0.6343,0.6342,0.6342,0,0.6445,0.6439,0.644,0.6437,0.6423,0.6423,0.6417,0.6408,0.6405,0.6399,0.6396,0.639,0.6386,0.6381,0.6369,0.6364,0.6367,0.6357,0.6362,0.6362,0.6363,0.6363,0.6384,0.6362,0.6362,0.6362,0.6362,0,0.6465,0.6468,0.645,0.645,0.6452,0.6438,0.644,0.6432,0.6424,0.6422,0.6409,0.6407,0.6391,0.6387,0.6378,0.6376,0.6375,0.6369,0.6367,0.637,0.6371,0.6368,0.6367,0.6362,0.6362,0.6362,0.6362,0,0.6491,0.6479,0.6479,0.6465,0.6461,0.6463,0.6451,0.645,0.6441,0.6438,0.6437,0.6422,0.6417,0.6404,0.6396,0.6389,0.6389,0.6385,0.6392,0.639,0.6395,0.6394,0.6414,0.6415,0.6394,0.6394,0.6394,0,0.6504,0.6506,0.6491,0.6489,0.6483,0.648,0.6476,0.6462,0.6458,0.6447,0.6447,0.6441,0.6434,0.6426,0.6414,0.6407,0.6402,0.6409,0.6401,0.6404,0.6401,0.6401,0.64,0.6411,0.6411,0.6412,0.6412,0,0.6529,0.6522,0.6518,0.651,0.6506,0.6499,0.6492,0.6491,0.6474,0.6471,0.6465,0.646,0.645,0.6443,0.6433,0.6426,0.6416,0.6414,0.6415,0.6419,0.6422,0.6419,0.6397,0.6414,0.6414,0.6414,0.6414,0.6414,0.6548,0.6548,0.6537,0.6532,0.6524,0.6517,0.6515,0.6505,0.65,0.6491,0.6483,0.6477,0.6466,0.6452,0.6445,0.644,0.6435,0.6436,0.6436,0.6436,0.6437,0.6423,0.6438,0.6438,0.6438,0.6438,0.6438,0,0.6571,0.6563,0.6558,0.6548,0.6543,0.6533,0.6524,0.652,0.6515,0.6506,0.65,0.6491,0.6484,0.6471,0.6462,0.646,0.6455,0.6458,0.6458,0.6456,0.6443,0.6443,0.6462,0.6462,0.6462,0.6462,0.6462,0.6462,0.6582,0.6581,0.6573,0.6567,0.6558,0.6552,0.6548,0.6541,0.6533,0.6524,0.6518,0.6509,0.6498,0.6488,0.648,0.6476,0.6473,0.6477,0.6472,0.646,0.6457,0.6455,0.6455,0.6477,0.6477,0.6486,0.6486,0.6486]}]]